Total_Precipitation_Accumulation
0.02 0.09 0.31 0.47 0.47 0.47 0.47 0.45 0.42 0.37 0.36 0.40 0.45 0.49 0.52 0.48 0.44 0.41 0.39 0.41 0.45 0.49 0.55 0.62 0.65 0.67 0.65 0.64 0.60 0.54 0.52 0.53 0.53 0.51 0.54 0.59 0.60 0.55 0.49 0.45 0.34 0.40 0.61
0.03 0.10 0.29 0.38 0.41 0.44 0.46 0.44 0.41 0.36 0.35 0.39 0.43 0.43 0.45 0.45 0.45 0.45 0.43 0.43 0.45 0.50 0.57 0.64 0.64 0.64 0.65 0.62 0.57 0.47 0.44 0.39 0.39 0.38 0.36 0.34 0.50 0.56 0.50 0.52 0.47 0.66 0.77
0.02 0.09 0.20 0.31 0.37 0.41 0.43 0.41 0.39 0.39 0.38 0.41 0.42 0.42 0.41 0.42 0.43 0.47 0.48 0.48 0.48 0.45 0.48 0.56 0.60 0.59 0.57 0.52 0.48 0.42 0.41 0.34 0.29 0.28 0.27 0.21 0.41 0.66 0.64 0.64 0.59 0.78 0.79
0.03 0.08 0.13 0.25 0.33 0.38 0.40 0.40 0.41 0.43 0.43 0.48 0.47 0.45 0.45 0.45 0.44 0.47 0.48 0.47 0.48 0.46 0.45 0.48 0.47 0.48 0.44 0.37 0.37 0.38 0.40 0.36 0.27 0.22 0.13 0.13 0.38 0.69 0.75 0.69 0.65 0.70 0.74
0.04 0.08 0.15 0.27 0.33 0.37 0.41 0.43 0.44 0.43 0.46 0.53 0.54 0.51 0.49 0.51 0.49 0.48 0.46 0.46 0.43 0.42 0.42 0.44 0.40 0.40 0.39 0.36 0.36 0.36 0.37 0.33 0.25 0.17 0.08 0.11 0.30 0.63 0.65 0.63 0.58 0.62 0.68
0.05 0.08 0.17 0.27 0.35 0.37 0.40 0.41 0.42 0.43 0.47 0.53 0.52 0.51 0.51 0.55 0.52 0.48 0.46 0.44 0.41 0.40 0.41 0.41 0.39 0.39 0.37 0.35 0.36 0.41 0.42 0.37 0.24 0.13 0.10 0.12 0.19 0.45 0.58 0.63 0.63 0.60 0.57
0.06 0.11 0.17 0.30 0.38 0.40 0.41 0.43 0.45 0.46 0.49 0.50 0.51 0.51 0.53 0.57 0.54 0.49 0.43 0.41 0.39 0.37 0.39 0.41 0.38 0.39 0.40 0.38 0.38 0.42 0.49 0.40 0.24 0.23 0.19 0.17 0.21 0.37 0.51 0.62 0.65 0.62 0.60
0.08 0.13 0.21 0.37 0.42 0.43 0.45 0.44 0.46 0.49 0.54 0.54 0.51 0.53 0.56 0.60 0.56 0.51 0.46 0.43 0.41 0.39 0.38 0.35 0.31 0.31 0.35 0.38 0.39 0.40 0.44 0.33 0.26 0.31 0.34 0.31 0.31 0.42 0.52 0.59 0.64 0.65 0.68
0.11 0.17 0.26 0.41 0.47 0.52 0.53 0.52 0.52 0.55 0.58 0.58 0.56 0.54 0.55 0.58 0.56 0.52 0.46 0.45 0.42 0.40 0.39 0.34 0.30 0.28 0.29 0.29 0.32 0.34 0.35 0.31 0.35 0.45 0.39 0.43 0.39 0.51 0.60 0.59 0.61 0.68 0.71
0.15 0.22 0.31 0.41 0.49 0.53 0.57 0.56 0.55 0.54 0.57 0.60 0.59 0.58 0.53 0.53 0.56 0.53 0.44 0.43 0.43 0.42 0.42 0.39 0.35 0.32 0.30 0.28 0.26 0.28 0.29 0.28 0.28 0.36 0.46 0.39 0.41 0.61 0.76 0.71 0.64 0.67 0.72
0.23 0.28 0.36 0.45 0.53 0.62 0.65 0.59 0.63 0.63 0.63 0.65 0.63 0.61 0.61 0.56 0.54 0.51 0.44 0.40 0.41 0.43 0.43 0.41 0.39 0.37 0.35 0.28 0.25 0.26 0.25 0.19 0.24 0.34 0.39 0.34 0.44 0.68 0.90 0.86 0.79 0.73 0.74
0.24 0.31 0.38 0.47 0.57 0.70 0.76 0.75 0.78 0.74 0.66 0.64 0.57 0.58 0.60 0.60 0.58 0.51 0.46 0.43 0.42 0.45 0.48 0.47 0.43 0.41 0.37 0.28 0.25 0.28 0.20 0.15 0.16 0.17 0.19 0.24 0.35 0.57 0.88 0.98 0.94 0.90 0.87
0.24 0.33 0.41 0.51 0.62 0.72 0.78 0.80 0.79 0.78 0.70 0.66 0.60 0.58 0.59 0.63 0.60 0.56 0.54 0.53 0.51 0.46 0.48 0.51 0.54 0.49 0.45 0.37 0.32 0.30 0.22 0.20 0.18 0.14 0.13 0.18 0.24 0.40 0.64 0.83 1.02 1.05 1.08
0.26 0.36 0.45 0.55 0.67 0.77 0.81 0.83 0.79 0.72 0.66 0.61 0.62 0.62 0.62 0.59 0.54 0.50 0.46 0.43 0.44 0.42 0.42 0.46 0.48 0.50 0.53 0.50 0.41 0.34 0.33 0.31 0.25 0.21 0.17 0.20 0.21 0.31 0.52 0.70 0.89 1.05 1.15
0.23 0.36 0.46 0.57 0.65 0.77 0.88 0.85 0.82 0.75 0.65 0.62 0.63 0.62 0.60 0.57 0.51 0.48 0.45 0.45 0.43 0.39 0.37 0.39 0.38 0.36 0.38 0.42 0.42 0.38 0.38 0.34 0.31 0.30 0.27 0.28 0.25 0.26 0.42 0.60 0.75 0.96 1.15
0.24 0.34 0.46 0.57 0.64 0.74 0.83 0.84 0.81 0.79 0.77 0.74 0.65 0.59 0.59 0.60 0.55 0.49 0.46 0.43 0.43 0.43 0.41 0.39 0.37 0.35 0.30 0.28 0.26 0.27 0.32 0.34 0.35 0.35 0.31 0.31 0.30 0.27 0.34 0.50 0.67 0.86 1.10
0.27 0.37 0.47 0.54 0.65 0.71 0.77 0.85 0.86 0.81 0.79 0.80 0.73 0.68 0.67 0.65 0.64 0.60 0.54 0.47 0.43 0.43 0.42 0.43 0.41 0.38 0.34 0.29 0.25 0.23 0.23 0.25 0.28 0.33 0.32 0.32 0.34 0.31 0.31 0.41 0.57 0.74 0.96
0.30 0.40 0.53 0.58 0.63 0.69 0.73 0.85 0.86 0.88 0.83 0.83 0.86 0.81 0.74 0.72 0.70 0.67 0.66 0.62 0.57 0.52 0.47 0.46 0.44 0.42 0.38 0.34 0.30 0.27 0.26 0.25 0.24 0.26 0.28 0.31 0.35 0.36 0.35 0.39 0.50 0.68 0.87
0.27 0.38 0.53 0.62 0.66 0.69 0.72 0.82 0.92 0.93 0.92 0.87 0.89 0.91 0.83 0.80 0.78 0.74 0.70 0.71 0.74 0.69 0.59 0.52 0.47 0.42 0.40 0.36 0.33 0.32 0.29 0.26 0.26 0.27 0.25 0.24 0.26 0.31 0.35 0.38 0.45 0.57 0.72
0.26 0.37 0.52 0.67 0.74 0.77 0.83 0.86 0.99 1.03 0.95 0.91 0.87 0.90 0.90 0.86 0.85 0.84 0.77 0.72 0.74 0.75 0.71 0.61 0.52 0.47 0.42 0.40 0.38 0.37 0.36 0.34 0.29 0.26 0.25 0.24 0.23 0.25 0.32 0.37 0.40 0.47 0.58
0.32 0.39 0.52 0.64 0.77 0.83 0.89 0.88 0.87 0.94 0.94 0.88 0.82 0.86 0.99 0.98 0.92 0.92 0.90 0.85 0.79 0.75 0.70 0.64 0.59 0.56 0.52 0.48 0.49 0.48 0.43 0.40 0.39 0.33 0.27 0.26 0.25 0.24 0.28 0.37 0.42 0.44 0.52
0.34 0.38 0.49 0.64 0.75 0.79 0.79 0.85 0.84 0.88 0.90 0.93 0.89 0.90 0.97 1.05 1.02 0.96 0.96 0.94 0.89 0.80 0.74 0.68 0.65 0.67 0.64 0.56 0.53 0.57 0.58 0.54 0.45 0.38 0.33 0.28 0.27 0.28 0.29 0.32 0.39 0.45 0.48
0.31 0.35 0.41 0.57 0.76 0.82 0.80 0.90 0.98 1.05 1.10 1.08 1.02 0.95 0.97 1.00 0.99 0.94 0.90 0.86 0.90 0.88 0.82 0.75 0.70 0.69 0.71 0.65 0.55 0.65 0.77 0.66 0.46 0.39 0.36 0.32 0.29 0.30 0.29 0.30 0.35 0.42 0.47
0.33 0.37 0.39 0.49 0.65 0.85 0.88 0.90 0.96 1.01 1.03 1.07 1.00 0.95 0.94 1.00 1.03 0.98 0.96 0.89 0.83 0.81 0.77 0.72 0.71 0.70 0.75 0.75 0.64 0.58 0.60 0.63 0.67 0.54 0.39 0.37 0.37 0.35 0.33 0.31 0.31 0.38 0.46
0.40 0.47 0.47 0.51 0.59 0.79 0.85 0.85 0.90 0.93 0.95 1.03 1.07 1.01 0.98 1.02 1.08 1.09 1.05 1.00 0.94 0.85 0.76 0.70 0.70 0.72 0.74 0.76 0.71 0.63 0.57 0.51 0.53 0.67 0.54 0.46 0.50 0.47 0.44 0.41 0.39 0.41 0.46
0.45 0.57 0.56 0.58 0.59 0.70 0.87 0.85 0.82 0.87 0.89 0.95 1.00 1.07 1.08 1.06 1.07 1.08 1.08 1.04 0.99 0.97 0.88 0.78 0.74 0.74 0.73 0.72 0.74 0.71 0.69 0.68 0.60 0.63 0.61 0.49 0.49 0.48 0.50 0.54 0.55 0.55 0.59